Regional Weather Roundup
Issued by NWS

Home | Current Version | Previous Version | Text Only | Print | Product List | Glossary On
Versions: 1 2 3 4 5 6 7 8 9 10 11 12 13 14 15 16 17 18 19 20 21 22 23 24 25 26 27
000
ASUS45 KREV 210710
RWRNV
NEVADA REGIONAL WEATHER ROUNDUP
NATIONAL WEATHER SERVICE RENO NV
1200 AM PDT MON AUG 21 2017

NOTE: "FAIR" INDICATES FEW OR NO CLOUDS BELOW 12,000 FEET WITH NO
SIGNIFICANT WEATHER AND/OR OBSTRUCTIONS TO VISIBILITY.

NVZ001-003-004-210800-
WESTERN NEVADA

CITY           SKY/WX    TMP DP  RH WIND       PRES   REMARKS
RENO           PTCLDY    75  49  39 CALM      30.06R
MINDEN         FAIR      57  45  62 SE9       30.10R
FALLON         PTCLDY    71  35  26 W3        29.99R
LOVELOCK       CLEAR     74  34  23 NE9       30.00R
HAWTHORNE      CLEAR     82  36  18 NW9       30.01R
$$

NVZ002-CAZ072-073-210800-
NORTHERN AND CENTRAL SIERRA

CITY           SKY/WX    TMP DP  RH WIND       PRES   REMARKS
S. LAKE TAHOE  CLEAR     53  46  77 S6        30.21S
TRUCKEE        CLEAR     54  52  94 CALM      30.20S
SQUAW VLY 8000   N/A     61  39  44 N5          N/A
MAMMOTH LAKES  FAIR      53  40  60 CALM      30.27S
BRIDGEPORT     MOCLDY    52  39  61 CALM      30.24S
$$

NVZ030-031-036-210800-
NORTHERN NEVADA

CITY           SKY/WX    TMP DP  RH WIND       PRES   REMARKS
ELKO           MOCLDY    74  31  20 NE7       30.10S
WINNEMUCCA     CLEAR     74  25  16 N9        30.07R
WENDOVER       PTCLDY    81  36  19 N8        30.05R
$$

NVZ035-037-210800-
CENTRAL NEVADA

CITY           SKY/WX    TMP DP  RH WIND       PRES   REMARKS
ELY            PTCLDY    64  27  24 E5        30.20R
EUREKA           N/A     60  34  37 S7        30.14S
$$

NVZ013-014-210800-
SOUTH CENTRAL NEVADA

CITY           SKY/WX    TMP DP  RH WIND       PRES   REMARKS
TONOPAH        CLEAR     65  33  30 NE7       30.14R
$$

NVZ017-020-022-210800-
SOUTHERN NEVADA

CITY           SKY/WX    TMP DP  RH WIND       PRES   REMARKS
LAS VEGAS      CLOUDY    91  47  21 S7        29.91R
N. LAS VEGAS   MOCLDY    91  45  20 S13       29.91R
NELLIS AFB     MOCLDY    91  49  23 E7        29.90R
HENDERSON      MOCLDY    88  48  25 S12       29.96R
MERCURY        PTCLDY    85  35  16 S8        29.98R
$$




USA.gov is the U.S. government's official web portal to all federal, state and local government web resources and services.